Change the Weather History Date:

Saturday, September 1, 2012

  Actual Average Record
Temperature  
Mean Temperature 69 °F -  
Max Temperature 87 °F 77 °F 91 °F (2011)
Min Temperature 51 °F 54 °F 48 °F (2005)
Cooling Degree Days 4    
Growing Degree Days 19 (Base 50)    
Moisture  
Dew Point 52 °F    
Average Humidity 58    
Maximum Humidity 94    
Minimum Humidity 30    
Precipitation  
Precipitation 0.00 in - - ()
Sea Level Pressure  
Sea Level Pressure 30.04 in    
Wind  
Wind Speed 7 mph (ESE)    
Max Wind Speed 18 mph    
Max Gust Speed 24 mph    
Visibility 10 miles    
Events      
Averages and records for this station are not official NWS values.
T = Trace of Precipitation, MM = Missing Value Source: NWS Daily Summary

Daily Weather History Graph

Daily Weather History Graph

Search for Another Location

Airport or City:

Trip Planner

Search our weather history database for the weather conditions in past years. The results will help you decide how hot, cold, wet, or windy it might be!

Date:

Astronomy

Sep. 01, 2012 Rise Set
Actual Time 6:46 AM CDT 8:00 PM CDT
Civil Twilight 6:15 AM CDT 8:30 PM CDT
Nautical Twilight 5:39 AM CDT 9:07 PM CDT
Astronomical Twilight 5:00 AM CDT 9:45 PM CDT
Moon 8:09 PM CDT 8:01 AM CDT
Length of Visible Light 14h 14m
Length of Day
13h 14m
Full, 99% of the Moon is Illuminated
Sep 1
Full
Sep 8
Last Quarter
Sep 15
New
Sep 22
First Quarter
Sep 29
Full

Hourly Weather History & Observations

Time (CDT) Temp. Heat Index Dew Point Humidity Pressure Visibility Wind Dir Wind Speed Gust Speed Precip Events Conditions
12:13 AM 55.4 °F - 51.8 °F 88% 30.10 in 10.0 mi East 4.6 mph - N/A   Clear
12:17 AM 55.4 °F - 51.8 °F 88% 30.09 in 10.0 mi East 5.8 mph - N/A   Clear
12:33 AM 55.4 °F - 51.8 °F 88% 30.10 in 10.0 mi East 4.6 mph - N/A   Clear
12:37 AM 55.4 °F - 50.0 °F 82% 30.10 in 10.0 mi East 4.6 mph - N/A   Clear
12:53 AM 55.4 °F - 50.0 °F 82% 30.10 in 10.0 mi ENE 4.6 mph - N/A   Clear
12:57 AM 55.4 °F - 50.0 °F 82% 30.10 in 10.0 mi NE 4.6 mph - N/A   Clear
1:13 AM 55.4 °F - 50.0 °F 82% 30.10 in 10.0 mi NE 4.6 mph - N/A   Clear
1:17 AM 55.4 °F - 50.0 °F 82% 30.10 in 10.0 mi ENE 4.6 mph - N/A   Clear
1:33 AM 55.4 °F - 50.0 °F 82% 30.10 in 10.0 mi ENE 5.8 mph - N/A   Clear
1:37 AM 53.6 °F - 50.0 °F 88% 30.10 in 10.0 mi ENE 5.8 mph - N/A   Clear
1:54 AM 53.6 °F - 48.2 °F 82% 30.10 in 10.0 mi ENE 4.6 mph - N/A   Clear
1:58 AM 53.6 °F - 48.2 °F 82% 30.10 in 10.0 mi East 4.6 mph - N/A   Clear
2:13 AM 55.4 °F - 50.0 °F 82% 30.10 in 10.0 mi East 6.9 mph - N/A   Clear
2:17 AM 55.4 °F - 50.0 °F 82% 30.10 in 10.0 mi East 6.9 mph - N/A   Clear
2:33 AM 55.4 °F - 50.0 °F 82% 30.10 in 10.0 mi East 8.1 mph - N/A   Clear
2:37 AM 55.4 °F - 50.0 °F 82% 30.10 in 10.0 mi East 8.1 mph - N/A   Clear
2:53 AM 55.4 °F - 50.0 °F 82% 30.10 in 10.0 mi East 8.1 mph - N/A   Clear
2:58 AM 57.2 °F - 50.0 °F 77% 30.09 in 10.0 mi East 8.1 mph - N/A   Clear
3:13 AM 57.2 °F - 50.0 °F 77% 30.09 in 10.0 mi East 5.8 mph - N/A   Clear
3:17 AM 57.2 °F - 50.0 °F 77% 30.09 in 10.0 mi East 5.8 mph - N/A   Clear
3:33 AM 55.4 °F - 50.0 °F 82% 30.09 in 10.0 mi East 6.9 mph - N/A   Clear
3:38 AM 55.4 °F - 50.0 °F 82% 30.09 in 10.0 mi East 5.8 mph - N/A   Clear
3:53 AM 55.4 °F - 50.0 °F 82% 30.10 in 10.0 mi East 5.8 mph - N/A   Clear
3:57 AM 55.4 °F - 50.0 °F 82% 30.09 in 10.0 mi East 5.8 mph - N/A   Clear
4:13 AM 55.4 °F - 50.0 °F 82% 30.10 in 10.0 mi East 4.6 mph - N/A   Clear
4:17 AM 55.4 °F - 50.0 °F 82% 30.09 in 10.0 mi ESE 3.5 mph - N/A   Clear
4:34 AM 55.4 °F - 48.2 °F 77% 30.09 in 10.0 mi East 3.5 mph - N/A   Clear
4:37 AM 55.4 °F - 48.2 °F 77% 30.09 in 10.0 mi East 3.5 mph - N/A   Clear
4:53 AM 55.4 °F - 48.2 °F 77% 30.09 in 10.0 mi East 3.5 mph - N/A   Clear
4:58 AM 55.4 °F - 48.2 °F 77% 30.09 in 10.0 mi East 4.6 mph - N/A   Clear
5:13 AM 55.4 °F - 48.2 °F 77% 30.10 in 10.0 mi Calm Calm - N/A   Clear
5:17 AM 53.6 °F - 48.2 °F 82% 30.10 in 10.0 mi Calm Calm - N/A   Clear
5:33 AM 53.6 °F - 48.2 °F 82% 30.09 in 10.0 mi Calm Calm - N/A   Clear
5:37 AM 51.8 °F - 48.2 °F 88% 30.09 in 10.0 mi Calm Calm - N/A   Clear
5:53 AM 53.6 °F - 48.2 °F 82% 30.09 in 10.0 mi Calm Calm - N/A   Clear
5:57 AM 53.6 °F - 48.2 °F 82% 30.09 in 10.0 mi Calm Calm - N/A   Clear
6:13 AM 53.6 °F - 48.2 °F 82% 30.09 in 10.0 mi Calm Calm - N/A   Clear
6:17 AM 53.6 °F - 48.2 °F 82% 30.09 in 10.0 mi Calm Calm - N/A   Clear
6:33 AM 53.6 °F - 48.2 °F 82% 30.09 in 10.0 mi Calm Calm - N/A   Clear
6:38 AM 53.6 °F - 48.2 °F 82% 30.09 in 10.0 mi Calm Calm - N/A   Clear
6:58 AM 51.8 °F - 48.2 °F 88% 30.10 in 10.0 mi Calm Calm - N/A   Clear
7:13 AM 51.8 °F - 48.2 °F 88% 30.10 in 10.0 mi Calm Calm - N/A   Clear
7:17 AM 51.8 °F - 48.2 °F 88% 30.11 in 10.0 mi Calm Calm - N/A   Clear
7:33 AM 51.8 °F - 48.2 °F 88% 30.10 in 10.0 mi Calm Calm - N/A   Clear
7:37 AM 51.8 °F - 48.2 °F 88% 30.10 in 10.0 mi Calm Calm - N/A   Clear
7:53 AM 53.6 °F - 51.8 °F 94% 30.11 in 10.0 mi Calm Calm - N/A   Clear
7:57 AM 55.4 °F - 50.0 °F 82% 30.10 in 10.0 mi Calm Calm - N/A   Clear
8:13 AM 57.2 °F - 51.8 °F 82% 30.10 in 10.0 mi Calm Calm - N/A   Clear
8:18 AM 57.2 °F - 51.8 °F 82% 30.10 in 10.0 mi Calm Calm - N/A   Clear
8:33 AM 60.8 °F - 50.0 °F 68% 30.10 in 10.0 mi ESE 4.6 mph - N/A   Clear
8:37 AM 60.8 °F - 50.0 °F 68% 30.10 in 10.0 mi ESE 5.8 mph - N/A   Clear
8:53 AM 62.6 °F - 51.8 °F 68% 30.09 in 10.0 mi ESE 8.1 mph - N/A   Clear
8:57 AM 62.6 °F - 51.8 °F 68% 30.09 in 10.0 mi ESE 8.1 mph - N/A   Clear
9:13 AM 64.4 °F - 51.8 °F 64% 30.10 in 10.0 mi SE 8.1 mph - N/A   Clear
9:17 AM 64.4 °F - 50.0 °F 59% 30.09 in 10.0 mi SE 8.1 mph - N/A   Clear
9:34 AM 66.2 °F - 51.8 °F 60% 30.09 in 10.0 mi ESE 8.1 mph - N/A   Clear
9:37 AM 68.0 °F - 51.8 °F 56% 30.09 in 10.0 mi ESE 9.2 mph - N/A   Clear
9:53 AM 69.8 °F - 51.8 °F 53% 30.10 in 10.0 mi SE 8.1 mph - N/A   Clear
9:57 AM 69.8 °F - 51.8 °F 53% 30.10 in 10.0 mi SE 9.2 mph - N/A   Clear
10:13 AM 71.6 °F - 53.6 °F 53% 30.10 in 10.0 mi SE 9.2 mph - N/A   Clear
10:17 AM 71.6 °F - 53.6 °F 53% 30.09 in 10.0 mi SSE 8.1 mph - N/A   Clear
10:33 AM 73.4 °F - 53.6 °F 50% 30.09 in 10.0 mi SSE 9.2 mph - N/A   Clear
10:37 AM 73.4 °F - 53.6 °F 50% 30.09 in 10.0 mi SSE 9.2 mph - N/A   Clear
10:53 AM 73.4 °F - 55.4 °F 53% 30.09 in 10.0 mi SE 10.4 mph - N/A   Clear
10:57 AM 75.2 °F - 55.4 °F 50% 30.09 in 10.0 mi SE 8.1 mph - N/A   Clear
11:13 AM 75.2 °F - 55.4 °F 50% 30.08 in 10.0 mi SE 5.8 mph - N/A   Clear
11:17 AM 77.0 °F - 55.4 °F 47% 30.08 in 10.0 mi ESE 11.5 mph - N/A   Clear
11:33 AM 78.8 °F - 57.2 °F 47% 30.08 in 10.0 mi SE 9.2 mph - N/A   Clear
11:37 AM 78.8 °F - 57.2 °F 47% 30.08 in 10.0 mi SE 10.4 mph - N/A   Clear
11:53 AM 78.8 °F - 57.2 °F 47% 30.06 in 10.0 mi ESE 11.5 mph - N/A   Clear
11:57 AM 78.8 °F - 57.2 °F 47% 30.06 in 10.0 mi SE 9.2 mph - N/A   Clear
12:14 PM 80.6 °F 80.8 °F 57.2 °F 45% 30.06 in 7.0 mi SE 13.8 mph 19.6 mph N/A   Clear
12:17 PM 80.6 °F 80.8 °F 57.2 °F 45% 30.06 in 10.0 mi SE 11.5 mph 19.6 mph N/A   Clear
12:33 PM 80.6 °F 81.1 °F 59.0 °F 48% 30.06 in 10.0 mi SE 10.4 mph - N/A   Clear
12:37 PM 80.6 °F 81.1 °F 59.0 °F 48% 30.06 in 10.0 mi SE 12.7 mph 17.3 mph N/A   Clear
12:53 PM 82.4 °F 82.5 °F 59.0 °F 45% 30.05 in 10.0 mi ESE 13.8 mph - N/A   Clear
12:57 PM 82.4 °F 82.5 °F 59.0 °F 45% 30.05 in 10.0 mi SE 11.5 mph - N/A   Clear
1:13 PM 82.4 °F 82.5 °F 59.0 °F 45% 30.05 in 7.0 mi ESE 11.5 mph 17.3 mph N/A   Clear
1:18 PM 84.2 °F 83.8 °F 59.0 °F 42% 30.05 in 7.0 mi ESE 11.5 mph 16.1 mph N/A   Clear
1:33 PM 84.2 °F 84.4 °F 60.8 °F 45% 30.04 in 7.0 mi SE 11.5 mph 17.3 mph N/A   Clear
1:37 PM 84.2 °F 83.8 °F 59.0 °F 42% 30.04 in 7.0 mi ESE 13.8 mph 18.4 mph N/A   Clear
1:53 PM 84.2 °F 83.8 °F 59.0 °F 42% 30.03 in 10.0 mi SE 16.1 mph 19.6 mph N/A   Clear
1:57 PM 84.2 °F 83.5 °F 57.2 °F 40% 30.03 in 10.0 mi SE 13.8 mph 19.6 mph N/A   Clear
2:14 PM 86.0 °F 84.9 °F 57.2 °F 37% 30.02 in 7.0 mi SE 13.8 mph 21.9 mph N/A   Clear
2:18 PM 86.0 °F 84.9 °F 57.2 °F 37% 30.02 in 7.0 mi SE 16.1 mph 20.7 mph N/A   Clear
2:33 PM 87.8 °F 86.5 °F 57.2 °F 35% 30.02 in 10.0 mi SE 10.4 mph 17.3 mph N/A   Clear
2:37 PM 87.8 °F 86.1 °F 55.4 °F 33% 30.02 in 10.0 mi SE 18.4 mph 21.9 mph N/A   Clear
2:54 PM 87.8 °F 86.1 °F 55.4 °F 33% 30.02 in 10.0 mi SE 13.8 mph 20.7 mph N/A   Clear
2:57 PM 87.8 °F 86.1 °F 55.4 °F 33% 30.02 in 10.0 mi SE 16.1 mph 20.7 mph N/A   Clear
3:14 PM 87.8 °F 85.7 °F 53.6 °F 31% 30.01 in 10.0 mi SE 15.0 mph 19.6 mph N/A   Clear
3:17 PM 87.8 °F 86.1 °F 55.4 °F 33% 30.01 in 10.0 mi ESE 17.3 mph 20.7 mph N/A   Clear
3:33 PM 87.8 °F 86.1 °F 55.4 °F 33% 30.00 in 5.0 mi SE 13.8 mph 24.2 mph N/A   Haze
3:37 PM 87.8 °F 86.1 °F 55.4 °F 33% 30.00 in 7.0 mi SE 12.7 mph 24.2 mph N/A   Clear
3:53 PM 87.8 °F 86.1 °F 55.4 °F 33% 29.99 in 7.0 mi SE 12.7 mph 20.7 mph N/A   Clear
3:57 PM 87.8 °F 86.1 °F 55.4 °F 33% 29.99 in 7.0 mi SE 17.3 mph 21.9 mph N/A   Clear
4:13 PM 87.8 °F 86.1 °F 55.4 °F 33% 29.99 in 5.0 mi SE 13.8 mph 21.9 mph N/A   Haze
4:17 PM 87.8 °F 86.1 °F 55.4 °F 33% 29.99 in 5.0 mi SE 15.0 mph 21.9 mph N/A   Haze
4:33 PM 87.8 °F 85.7 °F 53.6 °F 31% 29.98 in 10.0 mi SE 16.1 mph 20.7 mph N/A   Clear
4:37 PM 87.8 °F 85.7 °F 53.6 °F 31% 29.98 in 10.0 mi SSE 13.8 mph 20.7 mph N/A   Clear
4:53 PM 87.8 °F 85.7 °F 53.6 °F 31% 29.98 in 10.0 mi ESE 12.7 mph 24.2 mph N/A   Clear
4:57 PM 87.8 °F 85.7 °F 53.6 °F 31% 29.98 in 10.0 mi ESE 15.0 mph 24.2 mph N/A   Clear
5:13 PM 86.0 °F 84.2 °F 53.6 °F 33% 29.98 in 10.0 mi SE 15.0 mph - N/A   Clear
5:17 PM 86.0 °F - 51.8 °F 31% 29.98 in 10.0 mi SE 17.3 mph 21.9 mph N/A   Clear
5:33 PM 86.0 °F - 51.8 °F 31% 29.97 in 10.0 mi SE 15.0 mph 19.6 mph N/A   Clear
5:37 PM 86.0 °F - 51.8 °F 31% 29.97 in 10.0 mi SE 13.8 mph - N/A   Clear
5:53 PM 84.2 °F - 51.8 °F 33% 29.97 in 10.0 mi SE 15.0 mph 24.2 mph N/A   Clear
5:57 PM 84.2 °F - 51.8 °F 33% 29.97 in 10.0 mi SE 15.0 mph 24.2 mph N/A   Clear
6:14 PM 84.2 °F - 50.0 °F 30% 29.97 in 10.0 mi SE 13.8 mph 19.6 mph N/A   Clear
6:17 PM 84.2 °F - 50.0 °F 30% 29.97 in 10.0 mi SE 12.7 mph 19.6 mph N/A   Clear
6:33 PM 82.4 °F - 50.0 °F 32% 29.96 in 10.0 mi ESE 12.7 mph 19.6 mph N/A   Clear
6:37 PM 82.4 °F - 51.8 °F 35% 29.96 in 10.0 mi ESE 12.7 mph - N/A   Clear
6:53 PM 82.4 °F 81.4 °F 53.6 °F 37% 29.96 in 10.0 mi ESE 12.7 mph - N/A   Clear
6:57 PM 80.6 °F 80.3 °F 53.6 °F 39% 29.96 in 7.0 mi ESE 15.0 mph - N/A   Clear
7:13 PM 80.6 °F - 51.8 °F 37% 29.96 in 7.0 mi ESE 12.7 mph - N/A   Clear
7:17 PM 78.8 °F - 51.8 °F 39% 29.96 in 10.0 mi ESE 13.8 mph - N/A   Clear
7:33 PM 78.8 °F - 51.8 °F 39% 29.96 in 10.0 mi ESE 13.8 mph 19.6 mph N/A   Clear
7:37 PM 77.0 °F - 51.8 °F 41% 29.96 in 10.0 mi ESE 15.0 mph 19.6 mph N/A   Clear
7:53 PM 75.2 °F - 51.8 °F 44% 29.96 in 10.0 mi ESE 12.7 mph - N/A   Clear
7:57 PM 75.2 °F - 51.8 °F 44% 29.96 in 10.0 mi ESE 12.7 mph - N/A   Clear
8:13 PM 75.2 °F - 51.8 °F 44% 29.96 in 10.0 mi ESE 9.2 mph - N/A   Clear
8:17 PM 73.4 °F - 53.6 °F 50% 29.96 in 10.0 mi ESE 9.2 mph - N/A   Clear
8:33 PM 73.4 °F - 53.6 °F 50% 29.96 in 10.0 mi ESE 10.4 mph - N/A   Clear
8:37 PM 73.4 °F - 53.6 °F 50% 29.96 in 10.0 mi ESE 11.5 mph - N/A   Clear
8:53 PM 73.4 °F - 53.6 °F 50% 29.96 in 10.0 mi ESE 13.8 mph 19.6 mph N/A   Clear
8:58 PM 73.4 °F - 53.6 °F 50% 29.96 in 10.0 mi ESE 12.7 mph 18.4 mph N/A   Clear
9:13 PM 71.6 °F - 51.8 °F 50% 29.96 in 10.0 mi ESE 13.8 mph 19.6 mph N/A   Clear
9:17 PM 71.6 °F - 51.8 °F 50% 29.96 in 10.0 mi SE 12.7 mph 19.6 mph N/A   Clear
9:33 PM 71.6 °F - 51.8 °F 50% 29.96 in 10.0 mi ESE 13.8 mph - N/A   Clear
9:37 PM 71.6 °F - 51.8 °F 50% 29.96 in 10.0 mi SE 12.7 mph - N/A   Clear
9:53 PM 69.8 °F - 51.8 °F 53% 29.97 in 10.0 mi SE 11.5 mph - N/A   Clear
9:57 PM 69.8 °F - 51.8 °F 53% 29.97 in 10.0 mi ESE 12.7 mph - N/A   Clear
10:13 PM 69.8 °F - 53.6 °F 56% 29.96 in 10.0 mi SE 12.7 mph - N/A   Clear
10:17 PM 69.8 °F - 53.6 °F 56% 29.96 in 10.0 mi SE 11.5 mph - N/A   Clear
10:33 PM 69.8 °F - 53.6 °F 56% 29.97 in 10.0 mi SE 12.7 mph - N/A   Clear
10:38 PM 69.8 °F - 53.6 °F 56% 29.97 in 10.0 mi SE 12.7 mph - N/A   Clear
10:53 PM 68.0 °F - 53.6 °F 60% 29.96 in 10.0 mi SE 12.7 mph - N/A   Clear
11:13 PM 68.0 °F - 53.6 °F 60% 29.96 in 10.0 mi SE 11.5 mph - N/A   Clear
11:18 PM 66.2 °F - 53.6 °F 64% 29.96 in 10.0 mi SE 12.7 mph - N/A   Clear
11:33 PM 66.2 °F - 53.6 °F 64% 29.96 in 10.0 mi SE 11.5 mph - N/A   Clear
11:53 PM 66.2 °F - 53.6 °F 64% 29.96 in 10.0 mi SE 10.4 mph - N/A   Clear
11:57 PM 66.2 °F - 53.6 °F 64% 29.96 in 10.0 mi SE 10.4 mph - N/A   Clear